Location: Brede
(50.9167°N, 0.6000°E)
Time: 17:54:08
(UTC+00:00)

Tiros 1 despin weight - Pass Details

Date: 02 December 2020
Orbit: 594 x 641 km, 48.2° (Epoch: 15 January)

Event Time Altitude Azimuth Distance (km) Brightness Sun altitude
Rises 17:02:56 0° 277° (W) 2,944 ? -10.3°
Reaches altitude 10° 17:06:16 10° 252° (WSW) 2,028 ? -10.8°
Maximum altitude 17:08:41 14° 221° (SW) 1,762 ? -11.2°
Drops below altitude 10° 17:11:06 10° 189° (S) 2,013 ? -11.5°
Sets 17:14:24 0° 165° (SSE) 2,908 ? -12.0°
